| time (UTC) | temp F | wind direction | speed knots | gust knots | rain 1hr in | rain 24hr in | rain mn in | humidity % | barometer mb |
| 20260510083004 | 71 | 321 | 0.0 | 0.0 | 0.00 | 0.24 | 0.01 | 93 | 1012.0 |
| 20260510082504 | 71 | 321 | 0.0 | 0.0 | 0.00 | 0.24 | 0.01 | 93 | 1011.8 |
| 20260510082004 | 71 | 321 | 0.0 | 0.0 | 0.00 | 0.24 | 0.01 | 93 | 1011.9 |
| 20260510081504 | 71 | 321 | 0.0 | 0.0 | 0.00 | 0.24 | 0.01 | 93 | 1011.9 |
| 20260510081004 | 71 | 321 | 0.0 | 0.0 | 0.00 | 0.24 | 0.01 | 93 | 1011.8 |
| 20260510080504 | 71 | 321 | 0.0 | 0.0 | 0.00 | 0.24 | 0.01 | 93 | 1011.8 |
| 20260510080004 | 71 | 321 | 0.0 | 0.0 | 0.00 | 0.24 | 0.01 | 93 | 1012.0 |
| 20260510075004 | 71 | 321 | 0.0 | 0.0 | 0.00 | 0.24 | 0.01 | 93 | 1012.0 |
| 20260510074504 | 71 | 321 | 0.0 | 0.0 | 0.00 | 0.24 | 0.01 | 93 | 1012.1 |
| 20260510074004 | 71 | 321 | 0.0 | 0.0 | 0.00 | 0.24 | 0.01 | 93 | 1012.0 |
| 20260510073504 | 71 | 321 | 0.0 | 0.0 | 0.00 | 0.24 | 0.01 | 93 | 1012.0 |
| 20260510073004 | 71 | 321 | 0.0 | 0.0 | 0.00 | 0.24 | 0.01 | 93 | 1012.0 |
| 20260510072503 | 71 | 321 | 0.0 | 0.0 | 0.00 | 0.24 | 0.01 | 93 | 1012.1 |
| 20260510072004 | 71 | 321 | 0.0 | 0.0 | 0.00 | 0.24 | 0.01 | 93 | 1012.0 |
| 20260510071504 | 71 | 321 | 0.0 | 0.0 | 0.00 | 0.24 | 0.01 | 93 | 1012.0 |
| 20260510071004 | 71 | 318 | 0.0 | 0.0 | 0.00 | 0.24 | 0.01 | 93 | 1011.9 |
| 20260510070504 | 71 | 175 | 0.0 | 0.0 | 0.00 | 0.25 | 0.01 | 93 | 1011.8 |
| 20260510070004 | 71 | 175 | 0.0 | 0.0 | 0.00 | 0.25 | 0.01 | 93 | 1011.8 |
| 20260510065504 | 71 | 175 | 0.0 | 0.0 | 0.00 | 0.25 | 0.01 | 93 | 1011.7 |
| 20260510065003 | 71 | 175 | 0.0 | 0.0 | 0.00 | 0.25 | 0.01 | 93 | 1011.7 |
| 20260510064505 | 71 | 175 | 0.0 | 0.0 | 0.00 | 0.25 | 0.01 | 93 | 1011.8 |
| 20260510063504 | 71 | 175 | 0.0 | 0.9 | 0.00 | 0.25 | 0.01 | 93 | 1011.9 |
| 20260510063004 | 71 | 175 | 0.0 | 1.7 | 0.00 | 0.25 | 0.01 | 93 | 1012.0 |
| 20260510062004 | 71 | 147 | 0.0 | 2.6 | 0.00 | 0.25 | 0.01 | 93 | 1012.1 |
| 20260510061504 | 71 | 147 | 0.9 | 2.6 | 0.00 | 0.25 | 0.01 | 93 | 1012.1 |
| 20260510061005 | 72 | 171 | 0.9 | 2.6 | 0.00 | 0.25 | 0.01 | 93 | 1012.1 |
| 20260510060504 | 71 | 96 | 0.9 | 1.7 | 0.00 | 0.25 | 0.01 | 93 | 1012.2 |
| 20260510060003 | 71 | 92 | 0.9 | 2.6 | 0.00 | 0.25 | 0.01 | 93 | 1012.2 |
| 20260510055504 | 71 | 161 | 0.9 | 2.6 | 0.00 | 0.25 | 0.01 | 93 | 1012.4 |
| 20260510055004 | 71 | 152 | 0.9 | 2.6 | 0.00 | 0.25 | 0.01 | 93 | 1012.5 |
| 20260510054504 | 71 | 83 | 0.0 | 0.0 | 0.00 | 0.25 | 0.01 | 93 | 1012.5 |
| 20260510054003 | 71 | 138 | 0.0 | 0.9 | 0.01 | 0.25 | 0.01 | 93 | 1012.6 |
| 20260510053504 | 71 | 184 | 0.0 | 2.6 | 0.01 | 0.25 | 0.01 | 93 | 1012.7 |
| 20260510053004 | 71 | 98 | 0.0 | 2.6 | 0.01 | 0.25 | 0.01 | 93 | 1012.7 |
| 20260510052503 | 71 | 174 | 1.7 | 2.6 | 0.01 | 0.25 | 0.01 | 93 | 1012.8 |
| 20260510052005 | 71 | 117 | 0.0 | 1.7 | 0.01 | 0.25 | 0.01 | 93 | 1012.9 |
| 20260510051504 | 71 | 167 | 0.0 | 2.6 | 0.01 | 0.25 | 0.01 | 93 | 1013.0 |
| 20260510051004 | 71 | 189 | 0.9 | 2.6 | 0.01 | 0.25 | 0.01 | 93 | 1013.0 |
| 20260510050503 | 71 | 131 | 0.9 | 2.6 | 0.01 | 0.25 | 0.01 | 93 | 1013.1 |
| 20260510050004 | 71 | 175 | 0.0 | 2.6 | 0.01 | 0.25 | 0.01 | 93 | 1013.3 |
| 20260510045504 | 71 | 176 | 0.9 | 2.6 | 0.01 | 0.25 | 0.01 | 93 | 1013.4 |
| 20260510045004 | 71 | 189 | 0.0 | 2.6 | 0.01 | 0.25 | 0.01 | 93 | 1013.5 |
| 20260510044504 | 71 | 225 | 0.9 | 2.6 | 0.01 | 0.25 | 0.01 | 93 | 1013.5 |
| 20260510043504 | 70 | 155 | 0.0 | 0.0 | 0.00 | 0.24 | 0.00 | 93 | 1013.5 |
| 20260510042504 | 70 | 155 | 0.0 | 0.0 | 0.00 | 0.24 | 0.00 | 93 | 1013.4 |
| 20260510042004 | 70 | 155 | 0.0 | 0.0 | 0.00 | 0.24 | 0.00 | 93 | 1013.3 |
| 20260510041503 | 70 | 155 | 0.0 | 0.0 | 0.00 | 0.24 | 0.00 | 93 | 1013.4 |
| 20260510040505 | 70 | 155 | 0.0 | 0.0 | 0.00 | 0.24 | 0.00 | 93 | 1013.4 |
| 20260510040004 | 70 | 155 | 0.0 | 0.0 | 0.00 | 0.24 | 0.00 | 93 | 1013.4 |
| 20260510035504 | 71 | 155 | 0.0 | 0.0 | 0.00 | 0.24 | 0.24 | 93 | 1013.4 |
| 20260510034504 | 71 | 155 | 0.0 | 0.0 | 0.00 | 0.24 | 0.24 | 93 | 1013.4 |
| 20260510034004 | 71 | 155 | 0.0 | 0.0 | 0.00 | 0.24 | 0.24 | 93 | 1013.3 |
| 20260510033005 | 71 | 155 | 0.0 | 0.0 | 0.00 | 0.24 | 0.24 | 93 | 1013.5 |
| 20260510032504 | 71 | 155 | 0.0 | 0.0 | 0.00 | 0.24 | 0.24 | 93 | 1013.5 |
| 20260510032004 | 71 | 155 | 0.0 | 0.0 | 0.00 | 0.24 | 0.24 | 93 | 1013.5 |
| 20260510031504 | 71 | 155 | 0.0 | 0.0 | 0.00 | 0.24 | 0.24 | 93 | 1013.6 |
| 20260510031004 | 71 | 155 | 0.0 | 0.0 | 0.00 | 0.24 | 0.24 | 93 | 1013.7 |
| 20260510030504 | 71 | 155 | 0.0 | 0.0 | 0.00 | 0.24 | 0.24 | 93 | 1013.5 |
| 20260510030004 | 71 | 155 | 0.0 | 1.7 | 0.00 | 0.24 | 0.24 | 93 | 1013.5 |
| 20260510025004 | 71 | 155 | 0.9 | 1.7 | 0.00 | 0.24 | 0.24 | 93 | 1013.4 |
| 20260510024504 | 71 | 155 | 0.0 | 0.9 | 0.00 | 0.24 | 0.24 | 93 | 1013.3 |
| 20260510024004 | 71 | 155 | 0.0 | 1.7 | 0.00 | 0.24 | 0.24 | 93 | 1013.1 |
| 20260510023504 | 71 | 155 | 0.0 | 1.7 | 0.00 | 0.24 | 0.24 | 93 | 1013.1 |
| 20260510022504 | 71 | 115 | 0.0 | 0.9 | 0.00 | 0.24 | 0.24 | 93 | 1013.0 |
| 20260510022004 | 71 | 115 | 0.0 | 1.7 | 0.00 | 0.24 | 0.24 | 93 | 1012.8 |
| 20260510021005 | 71 | 158 | 0.0 | 1.7 | 0.00 | 0.24 | 0.24 | 93 | 1012.6 |
| 20260510020504 | 71 | 158 | 0.9 | 1.7 | 0.00 | 0.24 | 0.24 | 93 | 1012.5 |
| 20260510020004 | 71 | 148 | 0.0 | 0.0 | 0.00 | 0.24 | 0.24 | 93 | 1012.4 |
| 20260510014503 | 71 | 159 | 0.0 | 0.0 | 0.00 | 0.24 | 0.24 | 93 | 1012.4 |
| 20260510014004 | 71 | 159 | 0.0 | 0.0 | 0.00 | 0.24 | 0.24 | 93 | 1012.3 |
| 20260510013504 | 71 | 159 | 0.0 | 0.0 | 0.00 | 0.24 | 0.24 | 93 | 1012.2 |
| 20260510013004 | 71 | 130 | 0.0 | 0.0 | 0.00 | 0.24 | 0.24 | 93 | 1012.0 |
| 20260510012505 | 71 | 136 | 0.0 | 0.0 | 0.00 | 0.24 | 0.24 | 93 | 1012.0 |
| 20260510011504 | 71 | 136 | 0.0 | 0.0 | 0.00 | 0.24 | 0.24 | 93 | 1011.8 |
| 20260510011003 | 71 | 81 | 0.0 | 0.0 | 0.00 | 0.24 | 0.24 | 93 | 1011.9 |
| 20260510010504 | 71 | 13 | 0.0 | 0.9 | 0.00 | 0.24 | 0.24 | 93 | 1011.9 |
| 20260510010005 | 71 | 13 | 0.0 | 1.7 | 0.00 | 0.24 | 0.24 | 93 | 1011.8 |
| 20260510005004 | 71 | 292 | 0.0 | 1.7 | 0.00 | 0.24 | 0.24 | 93 | 1012.0 |
| 20260510004504 | 71 | 292 | 0.9 | 1.7 | 0.00 | 0.24 | 0.24 | 93 | 1012.0 |
| 20260510004005 | 71 | 214 | 0.0 | 1.7 | 0.00 | 0.24 | 0.24 | 93 | 1012.0 |
| 20260510003504 | 71 | 214 | 0.9 | 2.6 | 0.00 | 0.24 | 0.24 | 93 | 1012.3 |
| 20260510003005 | 71 | 288 | 1.7 | 2.6 | 0.01 | 0.24 | 0.24 | 93 | 1012.0 |
| 20260510002504 | 71 | 263 | 0.0 | 0.9 | 0.01 | 0.24 | 0.24 | 93 | 1011.8 |
| 20260510002004 | 71 | 263 | 0.0 | 0.9 | 0.01 | 0.24 | 0.24 | 93 | 1012.1 |
| 20260510001505 | 71 | 263 | 0.0 | 0.9 | 0.01 | 0.24 | 0.24 | 92 | 1012.1 |
| 20260510001004 | 71 | 263 | 0.0 | 0.9 | 0.01 | 0.24 | 0.24 | 93 | 1012.1 |
| 20260510000504 | 71 | 263 | 0.0 | 0.9 | 0.01 | 0.24 | 0.24 | 92 | 1012.3 |
| 20260509235003 | 72 | 224 | 0.0 | 0.9 | 0.01 | 0.24 | 0.24 | 92 | 1012.5 |
| 20260509234504 | 72 | 325 | 0.0 | 2.6 | 0.01 | 0.24 | 0.24 | 92 | 1012.6 |
| 20260509234003 | 72 | 306 | 0.9 | 2.6 | 0.01 | 0.24 | 0.24 | 92 | 1012.7 |
| 20260509233504 | 72 | 349 | 0.9 | 2.6 | 0.01 | 0.24 | 0.24 | 92 | 1012.5 |
| 20260509233004 | 72 | 330 | 1.7 | 2.6 | 0.00 | 0.23 | 0.23 | 92 | 1012.5 |
| 20260509232504 | 72 | 317 | 0.0 | 2.6 | 0.00 | 0.23 | 0.23 | 92 | 1012.5 |
| 20260509232004 | 72 | 336 | 0.9 | 2.6 | 0.00 | 0.23 | 0.23 | 92 | 1012.4 |
| 20260509231504 | 72 | 322 | 1.7 | 2.6 | 0.00 | 0.23 | 0.23 | 92 | 1012.4 |
| 20260509230504 | 72 | 302 | 0.9 | 2.6 | 0.00 | 0.23 | 0.23 | 92 | 1012.3 |
| 20260509230004 | 72 | 294 | 0.0 | 2.6 | 0.00 | 0.23 | 0.23 | 92 | 1012.2 |
| 20260509225504 | 72 | 303 | 0.9 | 2.6 | 0.00 | 0.23 | 0.23 | 92 | 1012.2 |
| 20260509224504 | 73 | 287 | 0.9 | 2.6 | 0.01 | 0.24 | 0.23 | 92 | 1012.1 |
| 20260509224004 | 73 | 310 | 0.9 | 2.6 | 0.01 | 0.24 | 0.23 | 92 | 1012.2 |
| 20260509223004 | 73 | 298 | 0.0 | 0.0 | 0.01 | 0.26 | 0.23 | 92 | 1012.1 |
| 20260509222504 | 73 | 298 | 0.0 | 0.9 | 0.01 | 0.27 | 0.23 | 92 | 1012.0 |
| 20260509222004 | 73 | 296 | 0.0 | 1.7 | 0.01 | 0.28 | 0.23 | 92 | 1012.1 |
| 20260509221505 | 73 | 294 | 0.0 | 1.7 | 0.01 | 0.30 | 0.23 | 92 | 1012.1 |
| 20260509221004 | 73 | 307 | 0.0 | 1.7 | 0.01 | 0.30 | 0.23 | 92 | 1012.2 |
| 20260509220503 | 73 | 307 | 0.9 | 1.7 | 0.01 | 0.30 | 0.23 | 92 | 1012.1 |
| 20260509220004 | 73 | 308 | 0.0 | 2.6 | 0.01 | 0.30 | 0.23 | 91 | 1012.0 |
| 20260509215503 | 73 | 300 | 0.9 | 2.6 | 0.01 | 0.30 | 0.23 | 91 | 1012.0 |
| 20260509215004 | 73 | 319 | 1.7 | 2.6 | 0.00 | 0.29 | 0.22 | 91 | 1012.0 |
| 20260509214504 | 73 | 296 | 1.7 | 2.6 | 0.00 | 0.29 | 0.22 | 91 | 1012.0 |
| 20260509214004 | 73 | 287 | 0.9 | 1.7 | 0.00 | 0.29 | 0.22 | 91 | 1011.8 |
| 20260509213504 | 73 | 291 | 0.9 | 4.3 | 0.00 | 0.29 | 0.22 | 91 | 1011.8 |
| 20260509213004 | 73 | 317 | 0.0 | 6.1 | 0.00 | 0.29 | 0.22 | 91 | 1011.6 |
| 20260509211504 | 74 | 309 | 0.0 | 6.1 | 0.00 | 0.29 | 0.22 | 91 | 1011.7 |
| 20260509211004 | 74 | 302 | 0.9 | 7.8 | 0.00 | 0.29 | 0.22 | 91 | 1011.6 |
| 20260509210504 | 74 | 317 | 2.6 | 7.8 | 0.00 | 0.29 | 0.22 | 91 | 1011.7 |
| 20260509210004 | 74 | 325 | 2.6 | 7.8 | 0.00 | 0.29 | 0.22 | 90 | 1011.7 |
| 20260509204504 | 74 | 310 | 2.6 | 8.7 | 0.00 | 0.29 | 0.22 | 90 | 1011.5 |
| 20260509204003 | 74 | 344 | 2.6 | 8.7 | 0.00 | 0.29 | 0.22 | 90 | 1011.5 |
| 20260509203504 | 75 | 306 | 2.6 | 8.7 | 0.00 | 0.29 | 0.22 | 90 | 1011.6 |
| 20260509203003 | 75 | 321 | 3.5 | 7.0 | 0.00 | 0.29 | 0.22 | 90 | 1011.6 |
| 20260509202504 | 76 | 350 | 0.9 | 6.1 | 0.01 | 0.29 | 0.22 | 91 | 1011.6 |
| 20260509202004 | 76 | 285 | 1.7 | 6.1 | 0.11 | 0.29 | 0.22 | 91 | 1011.6 |
| 20260509200505 | 75 | 317 | 2.6 | 7.0 | 0.16 | 0.29 | 0.22 | 90 | 1011.4 |
| 20260509195006 | 75 | 0 | 0.9 | 2.6 | 0.16 | 0.29 | 0.22 | 91 | 1011.4 |
| 20260509194506 | 75 | 254 | 0.9 | 2.6 | 0.16 | 0.29 | 0.22 | 90 | 1011.5 |
| 20260509193504 | 75 | 283 | 0.9 | 6.1 | 0.19 | 0.29 | 0.22 | 90 | 1011.5 |
| 20260509192504 | 76 | 244 | 2.6 | 11.3 | 0.20 | 0.28 | 0.21 | 89 | 1011.8 |
| 20260509192005 | 77 | 313 | 6.1 | 11.3 | 0.10 | 0.18 | 0.11 | 89 | 1011.9 |
| 20260509191504 | 77 | 331 | 1.7 | 2.6 | 0.05 | 0.13 | 0.06 | 90 | 1011.8 |
| 20260509190504 | 78 | 331 | 1.7 | 2.6 | 0.05 | 0.13 | 0.06 | 89 | 1011.5 |
| 20260509190004 | 78 | 329 | 0.0 | 0.0 | 0.05 | 0.13 | 0.06 | 89 | 1011.4 |
| 20260509185504 | 78 | 286 | 0.0 | 0.0 | 0.05 | 0.13 | 0.06 | 89 | 1011.6 |
| 20260509185004 | 78 | 282 | 0.0 | 0.0 | 0.05 | 0.13 | 0.06 | 88 | 1011.6 |
| 20260509184504 | 78 | 246 | 0.0 | 0.0 | 0.05 | 0.13 | 0.06 | 87 | 1011.6 |
| 20260509184004 | 79 | 246 | 0.0 | 0.0 | 0.04 | 0.12 | 0.05 | 86 | 1011.5 |
| 20260509183504 | 79 | 246 | 0.0 | 0.0 | 0.02 | 0.10 | 0.03 | 84 | 1011.7 |
| 20260509183004 | 80 | 244 | 0.0 | 1.7 | 0.01 | 0.09 | 0.02 | 83 | 1011.7 |
| 20260509182504 | 80 | 244 | 0.0 | 2.6 | 0.00 | 0.08 | 0.01 | 82 | 1011.7 |
| 20260509182004 | 80 | 284 | 1.7 | 4.3 | 0.00 | 0.08 | 0.01 | 80 | 1011.8 |
| 20260509181003 | 81 | 246 | 1.7 | 2.6 | 0.00 | 0.08 | 0.01 | 77 | 1011.8 |
| 20260509180504 | 81 | 305 | 1.7 | 2.6 | 0.00 | 0.08 | 0.01 | 76 | 1011.9 |
| 20260509180004 | 81 | 248 | 1.7 | 2.6 | 0.00 | 0.08 | 0.01 | 76 | 1011.8 |
| 20260509175504 | 81 | 254 | 0.9 | 2.6 | 0.00 | 0.08 | 0.01 | 76 | 1011.7 |
| 20260509175004 | 81 | 232 | 0.0 | 2.6 | 0.00 | 0.08 | 0.01 | 76 | 1011.8 |
| 20260509174504 | 81 | 196 | 0.9 | 2.6 | 0.00 | 0.08 | 0.01 | 77 | 1011.9 |
| 20260509174004 | 81 | 283 | 0.9 | 7.0 | 0.00 | 0.08 | 0.01 | 76 | 1012.0 |
| 20260509173503 | 81 | 269 | 1.7 | 7.0 | 0.00 | 0.08 | 0.01 | 77 | 1012.0 |
| 20260509173005 | 81 | 294 | 1.7 | 7.0 | 0.00 | 0.08 | 0.01 | 77 | 1012.1 |
| 20260509172004 | 81 | 289 | 0.9 | 2.6 | 0.00 | 0.08 | 0.01 | 77 | 1012.1 |
| 20260509171504 | 81 | 220 | 0.9 | 2.6 | 0.00 | 0.08 | 0.01 | 78 | 1011.9 |
| 20260509171004 | 81 | 90 | 0.9 | 2.6 | 0.00 | 0.08 | 0.01 | 78 | 1011.8 |
| 20260509170504 | 80 | 176 | 1.7 | 2.6 | 0.00 | 0.08 | 0.01 | 78 | 1012.0 |
| 20260509170004 | 80 | 157 | 0.9 | 2.6 | 0.00 | 0.08 | 0.01 | 78 | 1012.0 |
| 20260509165504 | 80 | 179 | 1.7 | 5.2 | 0.00 | 0.08 | 0.01 | 78 | 1012.1 |
| 20260509165005 | 80 | 181 | 1.7 | 5.2 | 0.00 | 0.08 | 0.01 | 78 | 1012.1 |
| 20260509164504 | 80 | 246 | 1.7 | 2.6 | 0.00 | 0.08 | 0.01 | 78 | 1012.2 |
| 20260509163505 | 80 | 166 | 0.9 | 2.6 | 0.00 | 0.08 | 0.01 | 79 | 1012.3 |
| 20260509163004 | 79 | 139 | 1.7 | 2.6 | 0.00 | 0.08 | 0.01 | 81 | 1012.4 |
| 20260509162505 | 79 | 107 | 0.0 | 2.6 | 0.00 | 0.08 | 0.01 | 82 | 1012.2 |
| 20260509162004 | 79 | 107 | 0.9 | 2.6 | 0.00 | 0.08 | 0.01 | 82 | 1012.3 |
| 20260509161505 | 79 | 97 | 0.9 | 2.6 | 0.00 | 0.08 | 0.01 | 81 | 1012.3 |
| 20260509161005 | 78 | 127 | 0.0 | 0.0 | 0.00 | 0.08 | 0.01 | 82 | 1012.4 |
| 20260509160506 | 78 | 127 | 0.0 | 0.0 | 0.00 | 0.08 | 0.01 | 81 | 1012.4 |
| 20260509160004 | 78 | 88 | 0.0 | 0.0 | 0.00 | 0.08 | 0.01 | 81 | 1012.4 |
| 20260509155504 | 78 | 78 | 0.0 | 0.9 | 0.00 | 0.08 | 0.01 | 81 | 1012.7 |
| 20260509155004 | 78 | 80 | 0.0 | 2.6 | 0.00 | 0.08 | 0.01 | 82 | 1012.5 |
| 20260509154503 | 78 | 74 | 0.9 | 2.6 | 0.00 | 0.08 | 0.01 | 82 | 1012.6 |
| 20260509154004 | 78 | 67 | 0.9 | 1.7 | 0.00 | 0.08 | 0.01 | 83 | 1012.5 |
| 20260509153504 | 78 | 105 | 0.9 | 1.7 | 0.00 | 0.08 | 0.01 | 84 | 1012.4 |
| 20260509153004 | 77 | 88 | 0.0 | 2.6 | 0.00 | 0.08 | 0.01 | 85 | 1012.3 |
| 20260509152003 | 77 | 94 | 0.0 | 2.6 | 0.00 | 0.08 | 0.01 | 84 | 1012.2 |
| 20260509151503 | 77 | 106 | 1.7 | 2.6 | 0.00 | 0.08 | 0.01 | 84 | 1012.4 |
| 20260509151004 | 77 | 89 | 0.9 | 2.6 | 0.00 | 0.08 | 0.01 | 84 | 1012.4 |
| 20260509150504 | 77 | 179 | 0.9 | 2.6 | 0.00 | 0.08 | 0.01 | 84 | 1012.4 |
| 20260509150004 | 77 | 53 | 0.0 | 2.6 | 0.00 | 0.08 | 0.01 | 85 | 1012.4 |
| 20260509145004 | 77 | 307 | 0.9 | 1.7 | 0.00 | 0.08 | 0.01 | 84 | 1012.7 |
| 20260509144504 | 77 | 293 | 0.9 | 1.7 | 0.00 | 0.08 | 0.01 | 85 | 1012.7 |
| 20260509144004 | 77 | 99 | 0.9 | 1.7 | 0.00 | 0.08 | 0.01 | 86 | 1012.4 |
| 20260509143504 | 76 | 289 | 0.9 | 1.7 | 0.00 | 0.08 | 0.01 | 86 | 1012.4 |
| 20260509143004 | 76 | 130 | 0.9 | 2.6 | 0.00 | 0.08 | 0.01 | 87 | 1012.4 |
| 20260509142503 | 75 | 186 | 0.0 | 2.6 | 0.00 | 0.08 | 0.01 | 87 | 1012.4 |
| 20260509142004 | 75 | 155 | 1.7 | 2.6 | 0.00 | 0.08 | 0.01 | 86 | 1012.3 |
| 20260509141504 | 75 | 278 | 0.9 | 2.6 | 0.00 | 0.08 | 0.01 | 87 | 1012.4 |
| 20260509141005 | 75 | 215 | 0.9 | 2.6 | 0.00 | 0.08 | 0.01 | 87 | 1012.3 |
| 20260509140504 | 75 | 123 | 1.7 | 2.6 | 0.00 | 0.08 | 0.01 | 87 | 1012.2 |
| 20260509140005 | 74 | 157 | 1.7 | 2.6 | 0.00 | 0.08 | 0.01 | 88 | 1012.2 |
| 20260509135504 | 74 | 202 | 0.9 | 2.6 | 0.00 | 0.08 | 0.01 | 88 | 1012.6 |
| 20260509135003 | 74 | 198 | 0.9 | 2.6 | 0.00 | 0.08 | 0.01 | 88 | 1012.8 |
| 20260509134504 | 74 | 229 | 0.9 | 2.6 | 0.00 | 0.08 | 0.01 | 89 | 1012.8 |
| 20260509134004 | 74 | 240 | 0.9 | 2.6 | 0.00 | 0.08 | 0.01 | 89 | 1012.7 |
| 20260509133504 | 73 | 228 | 1.7 | 2.6 | 0.00 | 0.08 | 0.01 | 89 | 1012.7 |
| 20260509133005 | 73 | 258 | 1.7 | 2.6 | 0.00 | 0.08 | 0.01 | 90 | 1012.6 |
| 20260509132505 | 73 | 307 | 1.7 | 2.6 | 0.00 | 0.08 | 0.01 | 90 | 1012.5 |
| 20260509132005 | 73 | 248 | 0.9 | 2.6 | 0.00 | 0.08 | 0.01 | 90 | 1012.3 |
| 20260509131504 | 73 | 198 | 0.9 | 2.6 | 0.00 | 0.08 | 0.01 | 90 | 1012.1 |
| 20260509130004 | 72 | 188 | 1.7 | 7.8 | 0.00 | 0.08 | 0.01 | 91 | 1012.0 |
| 20260509125504 | 72 | 159 | 1.7 | 7.8 | 0.00 | 0.08 | 0.01 | 91 | 1012.0 |
| 20260509125003 | 72 | 171 | 1.7 | 4.3 | 0.00 | 0.08 | 0.01 | 91 | 1012.0 |
| 20260509124504 | 71 | 213 | 1.7 | 4.3 | 0.00 | 0.08 | 0.01 | 92 | 1011.9 |
| 20260509124003 | 71 | 252 | 0.9 | 2.6 | 0.00 | 0.08 | 0.01 | 92 | 1011.9 |
| 20260509123004 | 70 | 204 | 0.9 | 1.7 | 0.00 | 0.08 | 0.01 | 92 | 1011.7 |
| 20260509122503 | 70 | 154 | 0.0 | 1.7 | 0.00 | 0.08 | 0.01 | 93 | 1011.6 |
| 20260509121003 | 69 | 203 | 0.0 | 1.7 | 0.00 | 0.08 | 0.01 | 93 | 1011.5 |
| 20260509120503 | 69 | 148 | 0.0 | 1.7 | 0.00 | 0.08 | 0.01 | 93 | 1011.5 |
| 20260509115505 | 68 | 190 | 0.0 | 5.2 | 0.00 | 0.08 | 0.01 | 93 | 1011.4 |
| 20260509115004 | 68 | 194 | 2.6 | 5.2 | 0.00 | 0.08 | 0.01 | 93 | 1011.4 |
| 20260509114505 | 68 | 170 | 2.6 | 5.2 | 0.00 | 0.08 | 0.01 | 93 | 1011.3 |
| 20260509113004 | 67 | 189 | 0.9 | 5.2 | 0.00 | 0.08 | 0.01 | 93 | 1011.1 |
| 20260509112504 | 67 | 165 | 1.7 | 5.2 | 0.00 | 0.08 | 0.01 | 93 | 1011.1 |
| 20260509112004 | 67 | 175 | 1.7 | 5.2 | 0.00 | 0.08 | 0.01 | 93 | 1011.2 |
| 20260509111004 | 66 | 179 | 1.7 | 5.2 | 0.00 | 0.08 | 0.01 | 93 | 1011.0 |
| 20260509110504 | 66 | 156 | 1.7 | 4.3 | 0.00 | 0.08 | 0.01 | 93 | 1011.0 |
| 20260509110004 | 66 | 186 | 1.7 | 4.3 | 0.00 | 0.08 | 0.01 | 93 | 1010.9 |
| 20260509105504 | 66 | 178 | 1.7 | 2.6 | 0.00 | 0.08 | 0.01 | 93 | 1010.8 |
| 20260509105003 | 66 | 175 | 0.9 | 4.3 | 0.00 | 0.08 | 0.01 | 93 | 1010.8 |
| 20260509104504 | 66 | 182 | 1.7 | 4.3 | 0.00 | 0.08 | 0.01 | 93 | 1010.8 |
| 20260509104004 | 66 | 174 | 0.9 | 2.6 | 0.00 | 0.08 | 0.01 | 93 | 1010.8 |
| 20260509103504 | 66 | 180 | 0.9 | 2.6 | 0.00 | 0.08 | 0.01 | 93 | 1010.8 |
| 20260509103005 | 66 | 193 | 0.0 | 2.6 | 0.00 | 0.08 | 0.01 | 93 | 1010.8 |
| 20260509102504 | 66 | 181 | 1.7 | 2.6 | 0.00 | 0.08 | 0.01 | 93 | 1011.0 |
| 20260509102004 | 66 | 170 | 0.9 | 2.6 | 0.00 | 0.08 | 0.01 | 93 | 1011.0 |
| 20260509101504 | 66 | 215 | 0.9 | 1.7 | 0.00 | 0.08 | 0.01 | 93 | 1010.9 |
| 20260509101004 | 66 | 188 | 0.9 | 1.7 | 0.00 | 0.08 | 0.01 | 93 | 1010.9 |
| 20260509100504 | 66 | 166 | 0.9 | 2.6 | 0.00 | 0.08 | 0.01 | 93 | 1010.8 |
| 20260509100005 | 66 | 179 | 0.9 | 2.6 | 0.00 | 0.08 | 0.01 | 93 | 1010.9 |
| 20260509095504 | 66 | 203 | 0.0 | 0.9 | 0.00 | 0.08 | 0.01 | 93 | 1011.0 |
| 20260509095004 | 66 | 203 | 0.0 | 0.0 | 0.00 | 0.08 | 0.01 | 93 | 1011.2 |
| 20260509094504 | 66 | 203 | 0.0 | 0.0 | 0.00 | 0.08 | 0.01 | 93 | 1011.5 |
| 20260509094004 | 66 | 203 | 0.0 | 0.0 | 0.00 | 0.08 | 0.01 | 93 | 1011.6 |
| 20260509093504 | 66 | 203 | 0.0 | 0.0 | 0.00 | 0.08 | 0.01 | 93 | 1011.5 |
| 20260509093004 | 66 | 203 | 0.0 | 0.0 | 0.00 | 0.08 | 0.01 | 93 | 1011.5 |
| 20260509092504 | 66 | 203 | 0.0 | 1.7 | 0.00 | 0.08 | 0.01 | 93 | 1011.5 |
| 20260509091503 | 66 | 203 | 0.0 | 1.7 | 0.00 | 0.08 | 0.01 | 93 | 1011.3 |
| 20260509091004 | 66 | 203 | 0.0 | 0.0 | 0.00 | 0.08 | 0.01 | 93 | 1011.2 |
| 20260509090504 | 66 | 203 | 0.0 | 0.9 | 0.00 | 0.08 | 0.01 | 93 | 1011.2 |
| 20260509090004 | 66 | 203 | 0.0 | 0.9 | 0.00 | 0.08 | 0.01 | 93 | 1011.3 |
| 20260509085504 | 66 | 203 | 0.9 | 0.9 | 0.00 | 0.08 | 0.01 | 93 | 1011.2 |
| 20260509085003 | 66 | 166 | 0.0 | 0.0 | 0.00 | 0.08 | 0.01 | 93 | 1011.2 |
| 20260509084503 | 67 | 166 | 0.0 | 0.9 | 0.00 | 0.08 | 0.01 | 93 | 1011.2 |
| 20260509084004 | 67 | 166 | 0.0 | 0.9 | 0.00 | 0.08 | 0.01 | 93 | 1011.1 |
| 20260509083504 | 67 | 166 | 0.0 | 0.9 | 0.00 | 0.08 | 0.01 | 93 | 1011.0 |